Location: Unspecified
(0.0000°N, 0.0000°E)
Time: 11:20:41
(UTC+00:00)

Oscar 15 - Visible Passes

Search period start: 05 June 2023 00:00
Search period end: 15 June 2023 00:00
Orbit: 780 x 794 km, 98.9° (Epoch: 04 June)

Date Brightness Start Highest point End Pass type
(mag) Time Alt. Az. Time Alt. Az. Time Alt. Az.
05 Jun 9.9 19:10:17 10° S 19:15:01 37° WSW 19:19:44 10° NW visible
06 Jun 8.6 18:39:41 10° SSE 18:44:51 89° WSW 18:50:00 10° NNW visible
07 Jun 11.3 19:51:40 10° SW 19:53:46 12° WSW 19:55:53 10° W visible
08 Jun 10.3 19:19:11 10° SSW 19:23:38 30° WSW 19:28:05 10° NW visible
09 Jun 8.8 18:48:20 10° S 18:53:28 71° WSW 18:58:35 10° NNW visible
10 Jun 8.8 18:18:21 10° SSE 18:23:19 48° ENE 18:28:15 10° N visible
11 Jun 10.7 19:28:11 10° SSW 19:32:15 24° WSW 19:36:20 10° NW visible
12 Jun 9.2 18:57:04 10° S 19:02:06 56° WSW 19:07:08 10° NNW visible
13 Jun 8.6 18:26:51 10° SSE 18:31:56 61° ENE 18:37:00 10° N visible
14 Jun 11.0 19:37:19 10° SSW 19:40:53 19° WSW 19:44:27 10° WNW visible
